Terminal Aerodrome Forecast
Issued by NWS

Home | Current Version | Previous Version | Text Only | Print | Product List | Glossary On
Versions: 1 2 3 4 5 6 7 8 9 10 11 12 13 14 15 16 17 18 19 20 21 22 23 24 25 26 27 28 29 30 31 32 33 34 35 36 37 38 39 40 41 42 43 44 45 46 47 48 49 50
000
FTUS43 KMKX 202120 AAC
TAFENW
TAF AMD
KENW 202120Z 2021/2118 27003KT 6SM -SN OVC040
      TEMPO 2021/2023 4SM -SN
     FM210100 23004KT P6SM OVC025
     FM210900 20004KT P6SM OVC030
     FM211200 18007KT P6SM OVC025
      TEMPO 2112/2116 -FZDZ=

USA.gov is the U.S. government's official web portal to all federal, state and local government web resources and services.